Retour au catalogue

USA 406

ActifMilitaireVLEO
NORAD 61027·PAYLOAD·🇺🇸 United States

Lancé Sep 6, 2024 depuis Vandenberg Space Force Base

Loading…

Prochains Passages (prochaines 24 heures)

TLE

PériméSource: Mike McCants

Époque: Sep 9, 2026, 20:05 UTC

1 61027U 24160G   26252.83701278 0.00000000  00000-0  00000-0 0    05
2 61027  70.0130 144.3787 0003000 333.1740  26.8260 14.96713958    04

Suivez USA 406 en temps réel avec AllMySat

Download on the App Store